When you browse on this site, cookies collect data to enhance your experience and personalize the content and advertising you see.
Visit our Privacy Policy to learn more. By continuing to use the site, you agree to this use of cookies and data.
  • In Hungary
  • List of Countries
  • For 7 days
  • Water Temperature
  • Satellite Maps
  • Weather Map
  • News
  • Weather Widgets
  • user-avatar
    Login

    Hourly Weather Alicante

    Today, 23 March, Saturday

    Time Temperature Precipitation Wind Pressure Humidity
    00:00 +13°C° 0 mm 3 mps 768 mmHg 60%
    01:00 +12°C° 0 mm 3 mps 768 mmHg 62%
    02:00 +12°C° 0 mm 3 mps 768 mmHg 63%
    03:00 +12°C° 0 mm 2 mps 767 mmHg 64%
    04:00 +11°C° 0 mm 3 mps 768 mmHg 65%
    05:00 +11°C° 0 mm 3 mps 768 mmHg 66%
    06:00 +11°C° 0 mm 3 mps 768 mmHg 67%
    07:00 +13°C° 0 mm 3 mps 768 mmHg 64%
    08:00 +14°C° 0 mm 4 mps 768 mmHg 61%
    09:00 +17°C° 0 mm 4 mps 768 mmHg 58%
    10:00 +18°C° 0 mm 4 mps 768 mmHg 55%
    11:00 +19°C° 0 mm 5 mps 768 mmHg 52%
    12:00 +20°C° 0 mm 6 mps 768 mmHg 49%
    13:00 +20°C° 0 mm 6 mps 767 mmHg 49%
    14:00 +20°C° 0 mm 6 mps 767 mmHg 48%
    15:00 +20°C° 0 mm 6 mps 767 mmHg 47%
    16:00 +19°C° 0 mm 5 mps 766 mmHg 52%
    17:00 +17°C° 0 mm 5 mps 766 mmHg 57%
    18:00 +17°C° 0 mm 4 mps 766 mmHg 61%
    19:00 +15°C° 0 mm 4 mps 766 mmHg 67%
    20:00 +14°C° 0 mm 3 mps 767 mmHg 73%
    21:00 +13°C° 0 mm 3 mps 767 mmHg 78%
    22:00 +13°C° 0 mm 3 mps 767 mmHg 79%
    23:00 +13°C° 0 mm 3 mps 767 mmHg 79%

    Tomorrow, 24 March, Sunday

    Time Temperature Precipitation Wind Pressure Humidity
    00:00 +12°C° 0 mm 3 mps 767 mmHg 79%
    01:00 +12°C° 0 mm 3 mps 767 mmHg 78%
    02:00 +12°C° 0 mm 3 mps 766 mmHg 77%
    03:00 +12°C° 0 mm 3 mps 766 mmHg 76%
    04:00 +12°C° 0 mm 3 mps 766 mmHg 76%
    05:00 +11°C° 0 mm 3 mps 766 mmHg 76%
    06:00 +11°C° 0 mm 3 mps 766 mmHg 76%
    07:00 +13°C° 0 mm 4 mps 766 mmHg 67%
    08:00 +15°C° 0 mm 4 mps 766 mmHg 58%
    09:00 +17°C° 0 mm 5 mps 766 mmHg 49%
    10:00 +19°C° 0 mm 6 mps 766 mmHg 46%
    11:00 +20°C° 0 mm 6 mps 766 mmHg 42%
    12:00 +21°C° 0 mm 7 mps 766 mmHg 39%
    13:00 +21°C° 0 mm 6 mps 766 mmHg 39%
    14:00 +21°C° 0 mm 6 mps 766 mmHg 38%
    15:00 +21°C° 0 mm 6 mps 765 mmHg 38%
    16:00 +20°C° 0 mm 5 mps 765 mmHg 41%
    17:00 +19°C° 0 mm 4 mps 765 mmHg 45%
    18:00 +18°C° 0 mm 4 mps 765 mmHg 49%
    19:00 +17°C° 0 mm 3 mps 765 mmHg 51%
    20:00 +17°C° 0 mm 3 mps 766 mmHg 52%
    21:00 +16°C° 0 mm 3 mps 766 mmHg 54%
    22:00 +16°C° 0 mm 3 mps 766 mmHg 55%
    23:00 +16°C° 0 mm 3 mps 766 mmHg 55%

    Day after tomorrow, 25 March, Monday

    Time Temperature Precipitation Wind Pressure Humidity
    00:00 +15°C° 0 mm 2 mps 765 mmHg 56%
    01:00 +14°C° 0 mm 3 mps 765 mmHg 57%
    02:00 +14°C° 0 mm 3 mps 765 mmHg 58%
    03:00 +14°C° 0 mm 3 mps 764 mmHg 59%
    04:00 +13°C° 0 mm 3 mps 764 mmHg 60%
    05:00 +13°C° 0 mm 3 mps 764 mmHg 61%
    06:00 +12°C° 0 mm 3 mps 764 mmHg 62%
    07:00 +14°C° 0 mm 3 mps 764 mmHg 54%
    08:00 +17°C° 0 mm 3 mps 764 mmHg 47%
    09:00 +19°C° 0 mm 4 mps 764 mmHg 39%
    10:00 +20°C° 0 mm 4 mps 764 mmHg 38%
    11:00 +21°C° 0 mm 5 mps 764 mmHg 36%
    12:00 +22°C° 0 mm 5 mps 764 mmHg 35%
    13:00 +22°C° 0 mm 5 mps 763 mmHg 35%
    14:00 +22°C° 0 mm 6 mps 763 mmHg 35%
    15:00 +22°C° 0 mm 6 mps 762 mmHg 36%
    16:00 +21°C° 0 mm 5 mps 762 mmHg 39%
    17:00 +19°C° 0 mm 5 mps 762 mmHg 42%
    18:00 +18°C° 0 mm 4 mps 762 mmHg 45%
    19:00 +17°C° 0 mm 4 mps 762 mmHg 46%
    20:00 +17°C° 0 mm 4 mps 763 mmHg 47%
    21:00 +15°C° 0 mm 4 mps 763 mmHg 49%
    22:00 +14°C° 0 mm 4 mps 763 mmHg 49%
    23:00 +14°C° 0 mm 3 mps 763 mmHg 50%

    26 March, Tuesday

    Time Temperature Precipitation Wind Pressure Humidity
    00:00 +13°C° 0 mm 3 mps 763 mmHg 50%
    01:00 +13°C° 0 mm 3 mps 763 mmHg 51%
    02:00 +13°C° 0 mm 3 mps 762 mmHg 52%
    03:00 +13°C° 0 mm 4 mps 762 mmHg 53%
    04:00 +13°C° 0 mm 4 mps 762 mmHg 52%
    05:00 +12°C° 0 mm 4 mps 762 mmHg 51%
    06:00 +12°C° 0 mm 4 mps 762 mmHg 50%
    07:00 +14°C° 0 mm 5 mps 762 mmHg 47%
    08:00 +16°C° 0 mm 6 mps 763 mmHg 44%
    09:00 +18°C° 0 mm 7 mps 763 mmHg 40%
    10:00 +18°C° 0 mm 7 mps 763 mmHg 43%
    11:00 +20°C° 0 mm 8 mps 764 mmHg 45%
    12:00 +19°C° 0 mm 9 mps 764 mmHg 47%
    13:00 +18°C° 0 mm 9 mps 764 mmHg 51%
    14:00 +18°C° 0 mm 9 mps 764 mmHg 56%
    15:00 +17°C° 0 mm 9 mps 764 mmHg 60%
    16:00 +16°C° 0 mm 8 mps 764 mmHg 60%
    17:00 +15°C° 0 mm 8 mps 765 mmHg 59%
    18:00 +13°C° 0 mm 8 mps 765 mmHg 59%
    19:00 +13°C° 0 mm 8 mps 766 mmHg 63%
    20:00 +12°C° 0 mm 8 mps 766 mmHg 67%
    21:00 +12°C° 0 mm 9 mps 766 mmHg 72%
    22:00 +12°C° 0 mm 9 mps 766 mmHg 73%
    23:00 +12°C° 0 mm 10 mps 766 mmHg 74%

    27 March, Wednesday

    Time Temperature Precipitation Wind Pressure Humidity
    00:00 +12°C° 0 mm 11 mps 766 mmHg 76%
    01:00 +12°C° 0 mm 10 mps 766 mmHg 73%
    02:00 +11°C° 0 mm 9 mps 766 mmHg 71%
    03:00 +10°C° 0 mm 8 mps 766 mmHg 68%
    04:00 +10°C° 0 mm 8 mps 766 mmHg 68%
    05:00 +10°C° 0 mm 8 mps 766 mmHg 68%
    06:00 +10°C° 0 mm 9 mps 766 mmHg 67%
    07:00 +11°C° 0 mm 9 mps 766 mmHg 62%
    08:00 +12°C° 0 mm 10 mps 766 mmHg 56%
    09:00 +14°C° 0 mm 11 mps 767 mmHg 51%
    10:00 +14°C° 0 mm 12 mps 766 mmHg 49%
    11:00 +15°C° 0 mm 12 mps 766 mmHg 47%
    12:00 +17°C° 0 mm 12 mps 766 mmHg 45%
    13:00 +17°C° 0 mm 12 mps 766 mmHg 44%
    14:00 +15°C° 0 mm 12 mps 766 mmHg 44%
    15:00 +15°C° 0 mm 12 mps 765 mmHg 44%
    16:00 +14°C° 0 mm 11 mps 765 mmHg 48%
    17:00 +14°C° 0 mm 11 mps 765 mmHg 52%
    18:00 +13°C° 0 mm 11 mps 766 mmHg 56%
    19:00 +13°C° 0 mm 10 mps 766 mmHg 58%
    20:00 +12°C° 0 mm 9 mps 766 mmHg 60%
    21:00 +12°C° 0 mm 8 mps 767 mmHg 62%
    22:00 +12°C° 0 mm 8 mps 766 mmHg 63%
    23:00 +12°C° 0 mm 7 mps 766 mmHg 64%

    28 March, Thursday

    Time Temperature Precipitation Wind Pressure Humidity
    00:00 +12°C° 0 mm 7 mps 766 mmHg 65%
    01:00 +13°C° 0 mm 6 mps 766 mmHg 65%
    02:00 +13°C° 0 mm 6 mps 766 mmHg 64%
    03:00 +11°C° 0 mm 6 mps 766 mmHg 64%
    04:00 +11°C° 0 mm 6 mps 766 mmHg 66%
    05:00 +11°C° 0 mm 6 mps 766 mmHg 67%
    06:00 +12°C° 0 mm 5 mps 766 mmHg 68%
    07:00 +13°C° 0.1 mm 6 mps 766 mmHg 64%
    08:00 +14°C° 0.1 mm 6 mps 767 mmHg 59%
    09:00 +14°C° 0.1 mm 7 mps 767 mmHg 55%
    10:00 +15°C° 0 mm 7 mps 767 mmHg 53%
    11:00 +15°C° 0 mm 7 mps 767 mmHg 52%
    12:00 +15°C° 0 mm 7 mps 767 mmHg 51%
    13:00 +15°C° 0 mm 6 mps 766 mmHg 50%
    14:00 +15°C° 0 mm 6 mps 766 mmHg 50%
    15:00 +16°C° 0 mm 6 mps 766 mmHg 50%
    16:00 +15°C° 0 mm 5 mps 766 mmHg 53%
    17:00 +15°C° 0 mm 5 mps 766 mmHg 56%
    18:00 +14°C° 0 mm 5 mps 766 mmHg 59%
    19:00 +14°C° 0 mm 5 mps 767 mmHg 63%
    20:00 +13°C° 0 mm 4 mps 768 mmHg 67%
    21:00 +13°C° 0 mm 4 mps 768 mmHg 71%
    22:00 +12°C° 0 mm 4 mps 768 mmHg 74%
    23:00 +12°C° 0 mm 4 mps 768 mmHg 77%
    Show more